Location: Shenandoah County Park
(38.9356°N, 78.4524°W)
Time: 00:33:13
(UTC-04:00)

DELFI C3 - Visible Passes

Search period start: 29 March 2023 00:00
Search period end: 08 April 2023 00:00
Orbit: 476 x 488 km, 97.3° (Epoch: 28 March)

Date Brightness Start Highest point End Pass type
(mag) Time Alt. Az. Time Alt. Az. Time Alt. Az.
29 Mar ? 20:46:36 10° SW 20:48:26 13° W 20:50:15 10° WNW visible
30 Mar ? 20:19:58 10° SSW 20:23:02 28° W 20:26:09 10° NW visible
02 Apr ? 20:37:39 10° SW 20:40:03 17° W 20:42:27 10° NW visible
03 Apr ? 20:10:56 10° SSW 20:14:13 36° W 20:17:32 10° NNW visible
05 Apr ? 20:55:10 10° WSW 20:56:01 11° W 20:56:52 10° WNW visible
06 Apr ? 20:26:56 10° SSW 20:29:47 23° W 20:32:39 10° NW visible
